www.pogodaiklimat.ru

Погода и климат >> Архив погоды >> Россия >> Приморский край >> Владивосток


АРХИВ ПОГОДЫ в Владивостоке

Время (UTC), дата Ветер
(напр.,м/с)
 
Видим.   Явления Облачность Т
(С)
Тd
(С)
f
(%)
Тe
(С)
Тes
(С)
Комфортность P
(гПа)
Po
(гПа)
Тmin
(С)
Tmax
(С)
R
(мм)
R24
(мм)
S
(см)
12 11.12 С 9-15
{19}
50 км 10/0
[As op]
-15.0 -21.0 60 -26 -26 очень
холодно
1011.4 986.5
15 11.12 С 12-19
{19}
50 км 10/0
[As op]
-15.3 -22.3 55 -28 -28 очень
холодно
1012.5 987.6
18 11.12 С 11-17
{19}
50 км 6/0
[Ac As]
-15.2 -23.3 50 -28 -28 очень
холодно
1013.5 988.6
21 11.12 СЗ 9-13
{18}
50 км 3/0
[Ac cast]
-14.8 -21.8 55 -26 -26 очень
холодно
1014.5 989.6 -15.5 4
00 12.12 СЗ 10-15
{19}
50 км 10/0
[As trans]
-14.8 -22.9 50 -27 -27 очень
холодно
1016.5 991.6
03 12.12 С 9-14
{15}
50 км 10/0
[Cs]
-13.3 -22.7 45 -24 -24 очень
холодно
1016.8 992.0
06 12.12 С 12-17
{19}
50 км 6/0
[Cc]
-11.9 -21.5 45 -24 -24 очень
холодно
1017.0 992.3
09 12.12 С 10-15
{19}
50 км 3/0
[Ac lent]
-13.2 -21.4 50 -25 -25 очень
холодно
1019.9 995.0 -11.9
12 12.12 С 8-12
{15}
50 км ясно -14.7 -24.0 45 -26 -26 очень
холодно
1021.6 996.5
15 12.12 С 10-17
{18}
50 км ясно -15.9 -25.1 45 -28 -28 очень
холодно
1023.3 998.1
18 12.12 С 8-12
{18}
50 км ясно -17.0 -25.0 50 -29 -29 очень
холодно
1024.3 999.0
21 12.12 С 9-14
{15}
50 км ясно -17.7 -26.8 45 -30 -30 очень
холодно
1024.6 999.2 -17.9 2
00 13.12 С 9-13
{16}
50 км 3/0
[Ac trans]
-17.4 -25.4 50 -30 -30 очень
холодно
1025.7 1000.3
03 13.12 С 12-20
{21}
50 км 6/0
[Cc]
-14.6 -23.9 45 -27 -27 очень
холодно
1025.2 1000.0
06 13.12 С 14-21
{24}
50 км 6/0
[Ci fib]
-12.1 -21.6 45 -25 -25 очень
холодно
1025.0 1000.1
09 13.12 С 9-15
{22}
50 км 8/0
[As op]
-12.1 -21.6 45 -23 -23 холодно 1027.7 1002.7 -11.5
12 13.12 С 9-14
{18}
50 км 6/0
[As op]
-13.7 -20.8 55 -25 -25 очень
холодно
1029.8 1004.6
15 13.12 С 11-17
{17}
50 км 4/0
[Ac cast]
-14.6 -20.8 59 -27 -27 очень
холодно
1030.6 1005.3
18 13.12 С 11-16
{19}
50 км 3/0
[Ac cast]
-15.4 -21.4 60 -28 -28 очень
холодно
1031.6 1006.3
21 13.12 С 10-15
{18}
50 км ясно -15.9 -22.9 55 -28 -28 очень
холодно
1032.0 1006.6 -15.9 2
00 14.12 С 8-14
{17}
50 км ясно -15.5 -24.0 48 -27 -26 очень
холодно
1033.0 1007.5
03 14.12 С 10-16
{16}
50 км ясно -13.1 -23.5 41 -24 -24 холодно 1031.3 1006.1
06 14.12 С 7-11
{16}
50 км ясно -10.7 -23.1 35 -20 -19 холодно 1030.3 1005.4
09 14.12 С 5
{11}
50 км ясно -11.6 -24.3 34 -20 -20 прохладно 1030.7 1005.7 -10.6
12 14.12 С 4 50 км ясно -12.7 -22.8 43 -20 -20 прохладно 1030.3 1005.3
15 14.12 С 4 50 км ясно -13.4 -23.7 42 -21 -21 прохладно 1029.7 1004.6
18 14.12 С 1 50 км ясно -12.5 -24.7 35 -15 -15 по сезону 1028.3 1003.3
21 14.12 СВ 2 50 км 8/8 600 м
[Sc]
-12.0 -24.6 34 -17 -17 по сезону 1026.7 1001.8 -13.8 1
00 15.12 С 3 50 км 10/10 600 м
[Sc]
-12.3 -20.6 50 -18 -18 по сезону 1025.6 1000.6
03 15.12 Ю 3 4000 м слабый снег 10/0
[As op]
-10.2 -12.2 85 -16 -16 по сезону 1023.3 998.6
06 15.12 штиль 0 20 км {снег} 10/0
[As trans]
-7.4 -10.4 79 -8 -7 тепло 1020.9 996.5
09 15.12 С 3 20 км {снег} 8/0
[Ac cast]
-9.0 -11.3 83 -15 -15 по сезону 1020.7 996.3 -7.2 0.4
12 15.12 С 7-10
{10}
20 км {снег} 6/0
[Ac cast]
-10.6 -11.9 90 -20 -20 прохладно 1021.2 996.6
15 15.12 С 6
{11}
20 км 6/0
[Ac cast]
-11.1 -13.9 80 -20 -20 по сезону 1022.0 997.3
18 15.12 С 5
{11}
20 км ясно -12.8 -17.1 70 -21 -21 по сезону 1021.7 996.8
21 15.12 С 5 20 км ясно -13.9 -19.1 65 -22 -22 прохладно 1021.0 996.0 -14.1 2
00 16.12 С 4 50 км ясно -15.0 -21.0 60 -23 -22 прохладно 1021.3 996.2 -15.4
03 16.12 С 5 50 км ясно -12.1 -20.4 50 -20 -18 по сезону 1019.2 994.5
06 16.12 С 8-12
{15}
50 км 4/0
[Ac cast]
-10.1 -22.7 35 -20 -19 прохладно 1017.6 993.1
09 16.12 С 7-11
{14}
50 км 8/4 600 м
[Sc Cc]
-11.9 -21.5 45 -21 -21 прохладно 1019.6 994.8 -10.1
12 16.12 С 7-12
{15}
50 км ясно -12.9 -20.1 55 -23 -23 холодно 1022.0 997.1
15 16.12 С 6
{12}
50 км ясно -13.5 -20.6 55 -23 -23 прохладно 1023.1 998.1
18 16.12 С 6
{12}
50 км ясно -14.6 -21.7 55 -24 -24 прохладно 1024.1 999.0
21 16.12 СЗ 7-11
{13}
50 км ясно -14.8 -21.8 55 -25 -25 холодно 1024.3 999.2 -14.9 2
00 17.12 С 3
{12}
20 км ясно -15.8 -21.8 60 -23 -22 прохладно 1025.3 1000.0 -15.8
03 17.12 С 4 20 км ясно -13.1 -22.6 45 -20 -18 по сезону 1023.8 998.8
06 17.12 С 2 50 км ясно -10.3 -21.3 40 -15 -13 по сезону 1022.4 997.7
09 17.12 штиль 0 50 км ясно -11.2 -22.2 40 -11 -11 по сезону 1023.3 998.6 -10.0
12 17.12 СЗ 2 50 км ясно -11.5 -21.1 45 -16 -16 по сезону 1023.6 998.8
15 17.12 СЗ 2 50 км 6/0
[Ac cast]
-11.1 -20.7 45 -16 -16 по сезону 1024.0 999.2
18 17.12 З 2 50 км ясно -10.8 -21.8 40 -15 -15 по сезону 1023.3 998.5
21 17.12 ЮВ 3 50 км 8/0
[Ac cast]
-11.6 -16.0 70 -18 -18 по сезону 1021.4 996.7 -12.0 2
00 18.12 ЮЗ 2 4000 м слабый снег 10/0
[As op]
-9.8 -14.8 67 -14 -14 по сезону 1020.5 995.9
03 18.12 Ю 1 20 км {снег} 10/0
[As trans]
-7.8 -12.7 68 -10 -8 тепло 1019.2 994.8
06 18.12 З 4 20 км {снег} 6/0
[Ac cast]
-5.7 -15.3 47 -12 -11 по сезону 1018.0 993.9

 

Местоположение метеостанции Владивосток (Приморский край, Россия): широта 43.12 долгота 131.90 высота над уровнем моря 188 м.

В архиве по умолчанию представлена погода в Владивостоке за последнюю неделю. Архивные данные за месяц целиком и за предыдущие месяцы, начиная с января 2011 года, Вы можете получить, выбрав интересующий диапазон дат из раскрывающегося списка и нажав кнопку "Ввод!".

Внимание! Время в таблицах - всемирное. Для получения местного времени необходимо прибавить поправку, которая в Владивостоке равна 10 ч.

Смотрите также архив погоды в соседних городах и на ближайших метеорологических станциях:

Погода на Мысе Назимова (Приморский край, Россия) (8 км)
Погода в Барабаше (Приморский край, Россия) (42 км)
Погода в Многоудобном (Приморский край, Россия) (60 км)
Погода в Находке (Приморский край, Россия) (81 км)
Погода в Гамове (Приморский край, Россия) (84 км)
Погода в Тимирязевском (Приморский край, Россия) (85 км)
Погода в Партизанске (Приморский край, Россия) (89 км)
Погода в Посьете (Приморский край, Россия) (104 км)
Погода в Полтавке (Приморский край, Россия) (112 км)
Погода в Анучино (Приморский край, Россия) (130 км)

Пояснения к столбцам:

Ветер - указаны скорость ветра в м/с - средняя за 10 мин, порывы в срок и между сроками (в фигурных скобках) и направление, откуда дует ветер: С - северный, СВ - северо-восточный, В - восточный, ЮВ - юго-восточный, Ю - южный, ЮЗ - юго-западный, З - западный, СЗ - северо-западный.
Видимость - горизонтальная дальность видимости в метрах или километрах. При видимости от 1 до 10 км при отсутствии осадков обычно наблюдается дымка, при ухудшении видимости до 1 км и менее - туман. В сухую погоду видимость может ухудшаться дымом, пылью или мглою.
Явления - указаны атмосферные явления, наблюдавшиеся в срок или в последний час перед сроком; фигурными скобками обозначены явления, наблюдавшиеся между сроками (за 1-3 часа до срока); квадратными скобками обозначены град или гололедные отложения с указанием их диаметра в мм.
Облачность - указаны через наклонную черту общая и нижняя облачность в баллах и высота нижней границы облаков в метрах; квадратными скобками обозначены формы облаков: Ci - перистые, Cs - перисто-слоистые, Cc - перисто-кучевые, Ac - высококучевые, As - высокослоистые, Sc - слоисто-кучевые, Ns - слоисто-дождевые, Cu - кучевые, Cb - кучево-дождевые. Подробнее классификацию облаков см. в Атласе облаков (PDF).
T - Температура воздуха - температура, измеренная на высоте 2 м над землей.
Td - Температура точки росы - температура, при понижении до которой содержащийся в воздухе водяной пар достигнет насыщения.
f - Относительная влажность воздуха - влажноcть воздуха, измеренная на высоте 2 м над землей.
Te - Эффективная температура - температура, которую ощущает одетый по сезону человек в тени. Характеристика душности погоды. При расчете учитывается влияние влажности воздуха и скорости ветра на теплоощущения человека.
Tes - Эффективная температура на солнце - температура, которую ощущает человек, с поправкой на солнечный нагрев. Характеристика знойности погоды. Зависит от высоты солнца над горизонтом, облачности и скорости ветра. Ночью, в пасмурную погоду, а также при ветре 12 м/с и более поправка равна нулю.
P - Атмосферное давление - приведенное к уровню моря атмосферное давление.
Po - Атмосферное давление - измеренное на уровне метеостанции атмосферное давление.
Tmin - Минимальная температура - минимум температуры воздуха на высоте 2 м над землей.
Tmax - Максимальная температура - максимум температуры воздуха на высоте 2 м над землей.
R - Количество осадков - Количество выпавших осадков за период времени, мм. При наведении курсора мыши на число - период времени, за который выпало указанное количество осадков.
R24 - Количество осадков - Количество выпавших осадков за 24 часа, мм.
S - Снежный покров - Высота снежного покрова, см. При наведении курсора мыши на число - состояние снежного покрова и степень покрытия местности в баллах.